Regional Weather Roundup
Issued by NWS

Home | Current Version | Previous Version | Text Only | Print | Product List | Glossary Off
Versions: 1 2 3 4 5 6 7 8 9 10 11 12 13 14 15 16 17 18 19 20 21 22 23 24 25 26 27 28 29 30 31 32 33 34 35 36 37 38 39 40 41 42 43 44 45 46 47 48 49 50

776
ASUS43 KIND 060159
RWRIN

WEATHER ROUNDUP FOR INDIANA
NATIONAL WEATHER SERVICE INDIANAPOLIS IN
900 PM EST FRI FEB 05 2016

NOTE: "FAIR" INDICATES FEW OR NO CLOUDS BELOW 12,000 FEET WITH NO
SIGNIFICANT WEATHER AND/OR OBSTRUCTIONS TO VISIBILITY.

* - STATION DOES NOT REPORT WEATHER SUCH AS PRECIPITATION OR FOG.

+ - STATION NOT QUALITY CONTROLLED BY THE NATIONAL WEATHER SERVICE.
    USE DATA WITH CAUTION...ESPECIALLY DEWPOINT AND RELATIVE
    HUMIDITY OBSERVATIONS.

INZ001>003-010>013-019-020-060300-
NORTHWEST INDIANA

CITY           SKY/WX    TMP DP  RH WIND       PRES   REMARKS
GARY /AIRPORT/ MOCLDY    30  21  69 SW8       30.36R WCI  23
RENSSELAER +   CLEAR     28  23  80 SW5       30.36R WCI  23

$$

LMZ046-743>745-060300-
SOUTHERN LAKE MICHIGAN

STATION/POSITION TIME  TEMP    WIND        PRES    WAVE
                       AIR SEA DIR/SP/G            HT
                 (UTC) (F)     (DEG/KT/KT) (MB)    (FT)
BURNS HARBOR     0100   30     210/  2/  2 1028.1F
MICHIGAN CITY    0100   30     110/  1/  2   N/A

$$

INZ004-005-014>016-021>024-060300-
NORTH CENTRAL INDIANA

CITY           SKY/WX    TMP DP  RH WIND       PRES   REMARKS
ELKHART          N/A     28  23  80 W3        30.33F
GOSHEN         CLOUDY    29  24  82 W6        30.32F WCI  23
PERU/GRISSOM   PTCLDY    26  24  90 SW5       30.31F WCI  21
SOUTH BEND     CLOUDY    28  22  78 CALM      30.32F

$$

INZ006>009-017-018-025>027-060300-
NORTHEAST INDIANA

CITY           SKY/WX    TMP DP  RH WIND       PRES   REMARKS
ANGOLA *+      CLOUDY    28  27  93 NW7       30.30F WCI  21
FORT WAYNE     CLOUDY    31  24  75 W7        30.34F WCI  24

$$

INZ028-029-035-036-043>045-051>053-060300-
WEST CENTRAL INDIANA

CITY           SKY/WX    TMP DP  RH WIND       PRES   REMARKS
GREENCASTLE +  CLEAR     28  18  64 CALM      30.35F
LAFAYETTE      MOCLDY    23  19  85 W3        30.37F
TERRE HAUTE    CLEAR     25  20  81 CALM      30.38S

$$

INZ030>032-037>040-046>048-054>057-064-065-060300-
CENTRAL INDIANA

CITY           SKY/WX    TMP DP  RH WIND       PRES   REMARKS
GREENWOOD *+   CLEAR     28  25  86 NW5       30.37S WCI  23
INDIANAPOLIS   CLEAR     27  20  75 CALM      30.34F
-EAGLE CREEK   CLEAR     28  21  75 CALM      30.34F
KOKOMO *+      PTCLDY    27  21  80 SW6       30.34F WCI  20
MT COMFORT *+  CLEAR     27  21  80 NW3       30.36S
SHELBYVILLE    CLEAR     30  24  78 N6        30.36S WCI  24

$$

INZ033-034-041-042-049-050-058-059-060300-
EAST CENTRAL INDIANA

CITY           SKY/WX    TMP DP  RH WIND       PRES   REMARKS
MUNCIE         CLEAR     29  22  75 W5        30.34F WCI  24

$$

INZ060-061-067>069-081>083-085>088-060300-
SOUTHWEST INDIANA

CITY           SKY/WX    TMP DP  RH WIND       PRES   REMARKS
EVANSVILLE     CLEAR     37  25  61 N7        30.38S
HUNTINGBURG *+ CLEAR     34  21  60 N6        30.37S WCI  29

$$

INZ062-063-066-070>080-084-089>092-060300-
SOUTH CENTRAL AND SOUTHEAST INDIANA

CITY           SKY/WX    TMP DP  RH WIND       PRES   REMARKS
BLOOMINGTON    CLEAR     27  21  78 N3        30.35F
MADISON *+     PTCLDY    34  21  60 W3        30.36S
SEYMOUR +      CLEAR     34  25  69 NW7       30.37R WCI  28

$$





USA.gov is the U.S. government's official web portal to all federal, state and local government web resources and services.